1494226801.07,24291,15.31,72760.5,6.21,-29.45,-31.33,0,*7C
1494226802.3,24292,15.31,72762.0,6.21,-31.01,-32.75,0,*77
1494226803.53,24293,15.31,72762.0,6.21,-29.73,-31.45,0,*7A
1494226804.79,24294,15.31,72760.0,6.21,-29.39,-31.11,0,*72
1494226805.99,24295,15.31,72762.0,6.21,-30.45,-32.35,0,*75
1494226807.23,24296,15.31,72756.8,6.23,-29.67,-31.45,0,*78
1494226808.49,24297,15.31,72756.8,6.25,-29.73,-31.85,0,*76
1494226809.71,24298,15.31,72758.5,6.25,-30.39,-32.13,0,*73
1494226810.93,24299,15.31,72758.5,6.25,-29.57,-31.29,0,*78
1494226812.16,24300,15.31,72756.0,6.25,-29.83,-31.57,0,*79
1494226813.4,24301,15.31,72758.0,6.25,-30.95,-32.69,0,*79
1494226814.65,24302,15.31,72756.8,6.27,-30.01,-31.79,0,*77
1494226815.94,24303,15.31,72758.5,6.27,-30.01,-31.95,0,*74
1494226817.18,24304,15.31,72760.3,6.29,-30.01,-31.73,0,*75
1494226818.45,24305,15.31,72760.0,6.27,-29.83,-31.61,0,*7B
1494226819.68,24306,15.31,72756.8,6.29,-30.27,-32.07,0,*73
1494226820.93,24307,15.31,72760.8,6.27,-30.39,-32.23,0,*75
1494226822.15,24308,15.31,72760.3,6.29,-30.73,-32.57,0,*79
1494226823.41,24309,15.31,72760.3,6.27,-31.91,-33.67,0,*79
1494226824.64,24310,15.31,72760.0,6.27,-30.33,-32.13,0,*7A
1494226825.92,24311,15.31,72756.3,6.27,-30.17,-31.91,0,*74
1494226827.15,24312,15.31,72754.3,6.29,-30.27,-31.73,0,*76
1494226828.37,24313,15.31,72758.5,6.29,-30.11,-31.91,0,*7E
1494226829.6,24314,15.31,72762.0,6.29,-30.27,-32.07,0,*70
1494226830.86,24315,15.31,72758.8,6.29,-30.17,-31.91,0,*7E
1494226832.09,24316,15.31,72762.3,6.29,-29.83,-31.73,0,*74
1494226833.32,24317,15.31,72762.0,6.31,-29.79,-31.45,0,*7C
1494226834.6,24318,15.31,72760.0,6.31,-30.77,-32.63,0,*72
1494226835.86,24319,15.31,72766.3,6.35,-30.73,-32.51,0,*72
1494226837.14,24320,15.31,72762.0,6.31,-30.95,-32.75,0,*72
1494226838.42,24321,15.31,72764.3,6.31,-30.77,-32.63,0,*78
1494226839.68,24322,15.31,72762.3,6.31,-31.67,-33.27,0,*7A
1494226840.91,24323,15.31,72760.0,6.31,-29.61,-31.29,0,*78
1494226842.16,24324,15.31,72756.3,6.31,-30.11,-31.91,0,*73
1494226843.42,24325,15.31,72760.8,6.35,-29.35,-31.05,0,*75
1494226844.68,24326,15.31,72764.8,6.35,-29.67,-31.39,0,*7E
1494226845.91,24327,15.31,72760.3,6.37,-28.97,-30.55,0,*78
1494226847.16,24328,15.31,72762.0,6.39,-30.01,-32.23,0,*7C
1494226848.38,24329,15.31,72758.5,6.37,-30.23,-31.85,0,*7C
1494226849.63,24330,15.31,72762.0,6.39,-29.13,-31.01,0,*7D
1494226850.84,24331,15.31,72762.3,6.41,-29.23,-30.83,0,*7B
1494226852.05,24332,15.31,72762.3,6.41,-29.45,-31.29,0,*79
1494226853.29,24333,15.31,72758.5,6.43,-29.07,-30.83,0,*7D
1494226854.55,24334,15.31,72764.0,6.41,-29.89,-31.51,0,*70
1494226855.78,24335,15.31,72764.3,6.43,-29.07,-30.83,0,*7B
1494226857.0,24336,15.31,72762.5,6.45,-30.01,-31.79,0,*74
1494226858.21,24337,15.31,72760.8,6.45,-29.67,-31.45,0,*72
1494226859.48,24338,15.31,72762.5,6.47,-30.39,-32.19,0,*76
1494226860.72,24339,15.31,72762.3,6.47,-29.67,-31.45,0,*7E
1494226861.95,24340,15.31,72762.5,6.49,-29.29,-31.17,0,*73
1494226863.2,24341,15.31,72760.8,6.49,-30.01,-32.07,0,*72
1494226864.45,24342,15.31,72762.5,6.49,-30.89,-32.97,0,*78
1494226865.66,24343,15.31,72764.0,6.49,-29.45,-31.29,0,*77
1494226866.89,24344,15.31,72762.3,6.49,-29.35,-31.29,0,*77
1494226868.14,24345,15.31,72762.8,6.49,-30.51,-32.29,0,*7F
1494226869.37,24346,15.31,72764.0,6.49,-29.13,-30.83,0,*70
1494226870.61,24347,15.31,72764.5,6.49,-28.97,-30.73,0,*73
1494226871.89,24348,15.31,72760.3,6.51,-28.75,-30.61,0,*7A
1494226873.13,24349,15.31,72766.8,6.53,-29.07,-30.83,0,*71
1494226874.35,24350,15.31,72766.8,6.57,-30.23,-32.01,0,*7B
1494226875.62,24351,15.31,72764.8,6.53,-30.77,-32.63,0,*7B
1494226876.9,24352,15.31,72766.5,6.53,-30.95,-32.63,0,*74
1494226878.18,24353,15.31,72766.3,6.53,-31.51,-33.27,0,*7D
1494226879.4,24354,15.31,72766.3,6.53,-30.27,-32.01,0,*7F
1494226880.68,24355,15.31,72766.8,6.53,-29.89,-31.57,0,*72
1494226881.93,24356,15.31,72764.8,6.53,-30.77,-32.39,0,*73
1494226883.22,24357,15.31,72764.5,6.53,-30.95,-32.75,0,*76
1494226884.49,24358,15.31,72760.5,6.53,-30.17,-31.91,0,*7A
1494226885.76,24359,15.31,72760.8,6.53,-30.61,-32.29,0,*7A
1494226887.01,24360,15.31,72768.0,6.53,-30.11,-31.85,0,*72
1494226888.27,24361,15.31,72766.3,6.57,-30.61,-32.51,0,*7A
1494226889.5,24362,15.31,72768.0,6.57,-29.95,-31.79,0,*73
1494226890.73,24363,15.31,72760.8,6.57,-29.83,-31.67,0,*7A
1494226892.01,24364,15.31,72762.5,6.57,-30.95,-32.85,0,*7D
1494226893.27,24365,15.31,72764.3,6.57,-30.27,-31.95,0,*77
1494226894.5,24366,15.31,72762.8,6.57,-29.83,-31.33,0,*7E
1494226895.74,24367,15.31,72764.0,6.57,-29.67,-31.45,0,*74
1494226897.02,24368,15.31,72760.8,6.53,-30.17,-32.19,0,*7A
1494226898.27,24369,15.31,72762.5,6.57,-30.61,-32.35,0,*70
1494226899.52,24370,15.31,72762.5,6.57,-30.39,-32.13,0,*71
1494226900.78,24371,15.31,72766.8,6.57,-29.51,-31.17,0,*71
1494226902.06,24372,15.31,72766.8,6.57,-28.79,-30.55,0,*7E
1494226903.34,24373,15.31,72760.0,6.61,-28.43,-30.17,0,*75
1494226904.61,24374,15.31,72762.3,6.61,-28.47,-30.05,0,*75
1494226905.85,24375,15.31,72762.3,6.65,-29.07,-30.67,0,*71
1494226907.13,24376,15.31,72762.3,6.65,-28.43,-30.17,0,*74
1494226908.38,24377,15.31,72760.3,6.65,-30.17,-32.01,0,*78
1494226909.59,24378,15.31,72764.8,6.67,-28.69,-30.45,0,*77
1494226910.87,24379,15.31,72762.8,6.69,-29.35,-31.23,0,*71
1494226912.16,24380,15.31,72762.0,6.69,-29.89,-31.95,0,*7D
1494226913.43,24381,15.31,72760.8,6.69,-28.79,-30.51,0,*7B
1494226914.63,24382,15.31,72762.0,6.71,-28.31,-30.23,0,*78
1494226915.89,24383,15.31,72764.8,6.71,-28.63,-30.55,0,*7F
1494226917.11,24384,15.31,72762.8,6.73,-27.71,-29.95,0,*72
1494226918.37,24385,15.31,72762.8,6.73,-28.05,-30.33,0,*7B
1494226919.59,24386,15.31,72764.3,6.75,-27.35,-29.45,0,*7B
1494226920.81,24387,15.31,72764.0,6.79,-27.35,-29.61,0,*70
1494226922.01,24388,15.31,72764.0,6.79,-28.85,-31.29,0,*7E
1494226923.24,24389,15.31,72760.0,6.79,-28.05,-30.27,0,*78
1494226924.46,24390,15.31,72764.8,6.81,-28.31,-30.33,0,*75
1494226925.71,24391,15.31,72760.8,6.81,-27.45,-29.67,0,*71
1494226926.94,24392,15.31,72764.3,6.83,-27.51,-30.01,0,*7D
1494226928.21,24393,15.31,72766.3,6.81,-30.17,-32.45,0,*78
1494226929.45,24394,15.31,72762.0,6.83,-27.93,-30.17,0,*72
1494226930.7,24395,15.31,72762.5,6.83,-27.61,-30.05,0,*7D
1494226931.94,24396,15.31,72760.8,6.83,-28.31,-30.89,0,*70
1494226933.18,24397,15.31,72762.8,6.85,-27.23,-29.29,0,*79
1494226934.46,24398,15.31,72762.8,6.87,-28.09,-30.89,0,*71
1494226935.69,24399,15.31,72762.0,6.89,-27.71,-30.05,0,*7A
1494226936.89,24400,15.31,72760.3,6.89,-27.55,-29.95,0,*7A
1494226938.11,24401,15.31,72764.8,6.89,-26.39,-28.75,0,*7F
1494226939.34,24402,15.31,72766.0,6.89,-26.13,-29.07,0,*70
1494226940.61,24403,15.31,72760.0,6.91,-25.75,-28.47,0,*7E
1494226941.89,24404,15.31,72762.0,6.91,-26.13,-29.13,0,*7A
1494226943.14,24405,15.31,72762.3,6.91,-25.81,-28.69,0,*7F
1494226944.36,24406,15.31,72756.8,6.95,-26.07,-29.07,0,*7C
1494226945.61,24407,15.31,72756.5,6.95,-25.71,-28.85,0,*74
1494226946.86,24408,15.31,72758.8,6.95,-26.71,-29.45,0,*75
1494226948.11,24409,15.31,72764.3,6.95,-25.61,-28.63,0,*73
1494226949.33,24410,15.31,72764.0,6.97,-25.23,-28.47,0,*79
1494226950.57,24411,15.31,72758.3,6.97,-25.55,-28.75,0,*78
1494226951.82,24412,15.31,72756.0,7.03,-25.81,-28.53,0,*7A
1494226953.1,24413,15.31,72758.8,7.03,-25.97,-28.47,0,*79
1494226954.33,24414,15.31,72760.3,7.03,-24.51,-27.67,0,*78
1494226955.55,24415,15.31,72758.8,7.05,-24.93,-28.63,0,*7A
1494226956.79,24416,15.31,72758.8,7.05,-24.51,-27.99,0,*7D
1494226958.03,24417,15.31,72758.0,7.05,-24.67,-28.79,0,*78
1494226959.26,24418,15.31,72762.8,7.07,-28.15,-31.79,0,*74
1494226960.52,24419,15.31,72760.8,7.05,-26.77,-29.89,0,*7B
1494226961.74,24420,15.31,72764.3,7.05,-25.65,-28.79,0,*7F
1494226962.97,24421,15.31,72760.8,7.05,-27.13,-30.73,0,*7E
1494226964.21,24422,15.31,72758.0,7.05,-25.81,-29.13,0,*7A
1494226965.49,24423,15.31,72762.8,7.07,-25.71,-29.35,0,*72
1494226966.72,24424,15.31,72766.0,7.07,-24.47,-27.71,0,*7F
1494226967.95,24425,15.31,72760.3,7.09,-26.13,-30.27,0,*76
1494226969.17,24426,15.31,72762.3,7.09,-26.29,-28.97,0,*7E
1494226970.4,24427,15.31,72762.0,7.09,-25.55,-28.31,0,*7B
1494226971.68,24428,15.31,72760.8,7.11,-25.55,-28.05,0,*7A
1494226972.94,24429,15.31,72762.0,7.13,-26.77,-30.17,0,*70
1494226974.16,24430,15.31,72760.0,7.13,-25.81,-28.53,0,*7B
1494226975.39,24431,15.31,72762.3,7.13,-25.19,-27.61,0,*75
1494226976.61,24432,15.31,72764.0,7.13,-25.35,-27.99,0,*7F
1494226977.86,24433,15.31,72766.8,7.17,-25.75,-28.59,0,*7D
1494226979.11,24434,15.31,72762.8,7.17,-26.55,-29.17,0,*70
1494226980.33,24435,15.31,72764.5,7.17,-25.97,-28.97,0,*75
1494226981.59,24436,15.31,72764.5,7.17,-25.71,-28.25,0,*77
1494226982.83,24437,15.31,72764.3,7.19,-25.45,-27.93,0,*7D
1494226984.06,24438,15.31,72764.5,7.21,-25.49,-28.25,0,*77
1494226985.29,24439,15.31,72766.0,7.25,-25.29,-27.67,0,*7D
1494226986.54,24440,15.31,72764.0,7.25,-25.97,-28.63,0,*7D
1494226987.77,24441,15.31,72760.5,7.27,-25.49,-28.69,0,*77
1494226989.03,24442,15.31,72766.3,7.27,-28.31,-30.73,0,*74
1494226990.3,24443,15.31,72762.8,7.27,-27.19,-29.51,0,*78
1494226991.54,24444,15.31,72762.5,7.27,-26.71,-29.23,0,*75
1494226992.82,24445,15.31,72766.0,7.27,-26.29,-28.63,0,*7C
1494226994.07,24446,15.31,72766.0,7.29,-26.55,-29.01,0,*7F
1494226995.32,24447,15.31,72766.8,7.31,-27.45,-30.23,0,*7F
1494226996.55,24448,15.31,72762.5,7.31,-27.29,-29.45,0,*72
1494226997.8,24449,15.31,72764.8,7.31,-27.39,-29.61,0,*74
1494226999.07,24450,15.31,72762.5,7.31,-27.23,-29.35,0,*76
1494227000.32,24451,15.31,72762.5,7.33,-27.39,-29.39,0,*72
1494227001.58,24452,15.31,72764.8,7.35,-27.99,-29.83,0,*7C
1494227002.8,24453,15.31,72766.0,7.33,-27.23,-29.23,0,*70
1494227004.03,24454,15.31,72764.5,7.35,-27.71,-29.83,0,*7C
1494227005.28,24455,15.31,72762.0,7.37,-27.99,-30.05,0,*7F
1494227006.53,24456,15.31,72762.8,7.39,-27.93,-30.05,0,*78
1494227007.78,24457,15.31,72766.8,7.39,-27.45,-29.61,0,*78
1494227009.02,24458,15.31,72760.5,7.41,-27.23,-29.13,0,*7D
1494227010.25,24459,15.31,72764.3,7.41,-26.55,-28.79,0,*71
1494227011.47,24460,15.31,72760.5,7.41,-26.71,-29.07,0,*75
1494227012.73,24461,15.31,72760.5,7.43,-26.71,-29.13,0,*73
1494227013.98,24462,15.31,72766.3,7.47,-27.35,-29.67,0,*76
1494227015.22,24463,15.31,72764.0,7.47,-26.87,-29.17,0,*78
1494227016.47,24464,15.31,72764.0,7.49,-27.83,-30.45,0,*7B
1494227017.73,24465,15.31,72762.3,7.47,-28.53,-30.61,0,*70
1494227018.95,24466,15.31,72764.5,7.49,-27.67,-29.79,0,*74
1494227020.23,24467,15.31,72768.5,7.49,-27.19,-29.51,0,*76
1494227021.48,24468,15.31,72766.8,7.51,-27.39,-29.51,0,*72
1494227022.71,24469,15.31,72766.5,7.53,-27.77,-29.95,0,*73
1494227023.94,24470,15.31,72764.3,7.55,-27.45,-29.61,0,*77
1494227025.22,24471,15.31,72764.5,7.57,-27.83,-29.89,0,*78
1494227026.48,24472,15.31,72764.5,7.55,-28.05,-30.01,0,*70
1494227027.76,24473,15.31,72766.0,7.57,-28.59,-30.89,0,*7A
1494227029.01,24474,15.31,72766.0,7.57,-28.05,-30.11,0,*75
1494227030.27,24475,15.31,72766.0,7.61,-27.07,-29.01,0,*75
1494227031.49,24476,15.31,72764.3,7.59,-27.23,-29.57,0,*78
1494227032.73,24477,15.31,72762.5,7.63,-26.55,-28.75,0,*71
1494227033.96,24478,15.31,72766.0,7.63,-26.03,-28.09,0,*76
1494227035.22,24479,15.31,72766.5,7.65,-25.75,-27.89,0,*74
1494227036.46,24480,15.31,72764.0,7.67,-26.55,-29.01,0,*7F
1494227037.68,24481,15.31,72766.8,7.71,-28.53,-30.95,0,*74
1494227038.9,24482,15.31,72766.8,7.71,-27.19,-29.57,0,*70
1494227040.15,24483,15.31,72766.8,7.71,-26.93,-29.29,0,*7B
1494227041.42,24484,15.31,72764.3,7.73,-26.77,-29.01,0,*7E
1494227042.64,24485,15.31,72764.5,7.75,-26.61,-29.01,0,*7E
1494227043.89,24486,15.31,72766.8,7.73,-25.97,-28.37,0,*75
1494227045.14,24487,15.31,72766.5,7.77,-26.93,-30.11,0,*7A
1494227046.36,24488,15.31,72764.3,7.75,-26.39,-28.79,0,*70
1494227047.55,24489,15.31,72764.8,7.75,-26.39,-28.97,0,*71
1494227048.78,24490,15.31,72766.0,7.79,-26.65,-29.01,0,*72
1494227050.0,24491,15.31,72768.5,7.79,-26.81,-29.23,0,*79
1494227051.23,24492,15.31,72762.0,7.79,-28.43,-30.67,0,*72
1494227052.43,24493,15.31,72764.8,7.79,-27.89,-29.95,0,*7F
1494227053.61,24494,15.31,72766.0,7.79,-26.87,-29.07,0,*7C
1494227054.85,24495,15.31,72762.5,7.81,-27.77,-30.01,0,*7A
1494227056.09,24496,15.31,72760.3,7.81,-27.61,-29.83,0,*7C
1494227057.36,24497,15.31,72764.3,7.83,-26.29,-28.47,0,*7B
1494227058.56,24498,15.31,72764.0,7.85,-26.87,-29.61,0,*73
1494227059.84,24499,15.31,72766.3,7.87,-27.39,-30.01,0,*7A
1494227061.08,24500,15.31,72764.5,7.85,-28.79,-31.29,0,*79
1494227062.35,24501,15.31,72762.0,7.87,-26.93,-29.29,0,*79
1494227063.55,24502,15.31,72766.3,7.85,-26.61,-29.07,0,*79
1494227064.78,24503,15.31,72766.3,7.87,-26.87,-29.67,0,*74
1494227066.04,24504,15.31,72766.0,7.87,-29.67,-32.29,0,*72
1494227067.24,24505,15.31,72760.3,7.89,-27.51,-29.57,0,*75
1494227068.52,24506,15.31,72762.5,7.87,-26.97,-29.13,0,*73
1494227069.75,24507,15.31,72760.8,7.89,-27.89,-29.73,0,*74
1494227070.96,24508,15.31,72760.3,7.93,-27.77,-29.57,0,*77
1494227072.21,24509,15.31,72760.5,7.93,-27.61,-29.39,0,*79
1494227073.47,24510,15.31,72760.3,7.93,-28.63,-30.55,0,*7E
1494227074.69,24511,15.31,72760.3,7.95,-27.03,-29.23,0,*79
1494227075.95,24512,15.31,72760.0,7.97,-29.01,-31.61,0,*7B
1494227077.18,24513,15.31,72762.8,7.95,-28.31,-30.45,0,*7D
1494227078.41,24514,15.31,72762.0,7.95,-26.49,-28.85,0,*7E
1494227079.65,24515,15.31,72760.5,7.97,-25.97,-28.31,0,*72
1494227080.92,24516,15.31,72760.5,7.99,-26.55,-29.01,0,*70
1494227082.12,24517,15.31,72762.5,8.01,-27.07,-29.23,0,*79
1494227083.37,24518,15.31,72762.3,7.99,-27.13,-29.35,0,*7A
1494227084.62,24519,15.31,72762.5,8.01,-27.39,-29.39,0,*71
1494227085.83,24520,15.31,72760.8,8.05,-27.13,-29.17,0,*7B
1494227087.09,24521,15.31,72764.5,8.03,-27.99,-30.23,0,*71
1494227088.33,24522,15.31,72762.5,8.05,-27.35,-29.39,0,*71
1494227089.55,24523,15.31,72760.0,8.05,-27.89,-30.05,0,*70
1494227090.79,24524,15.31,72764.3,8.07,-27.29,-29.29,0,*79
1494227091.98,24525,15.31,72764.0,8.05,-28.15,-30.11,0,*79
1494227093.21,24526,15.31,72760.3,8.05,-28.69,-30.61,0,*76
1494227094.46,24527,15.31,72764.3,8.07,-27.99,-29.83,0,*71
1494227095.74,24528,15.31,72762.5,8.07,-28.09,-29.89,0,*72
1494227096.97,24529,15.31,72760.8,8.09,-29.23,-31.23,0,*7D
1494227098.23,24530,15.31,72760.8,8.09,-28.91,-30.51,0,*79
1494227099.46,24531,15.31,72760.0,8.09,-28.53,-30.17,0,*74
1494227100.68,24532,15.31,72766.5,8.07,-29.61,-31.79,0,*70
1494227101.93,24533,15.31,72760.5,8.07,-28.97,-30.55,0,*76
1494227103.13,24534,15.31,72762.5,8.09,-27.77,-29.61,0,*71
1494227104.33,24535,15.31,72762.0,8.09,-27.77,-29.45,0,*76
1494227105.56,24536,15.31,72760.5,8.09,-27.07,-28.91,0,*7A
1494227106.8,24537,15.31,72762.8,8.09,-27.19,-29.29,0,*76
1494227107.99,24538,15.31,72762.0,8.15,-27.89,-29.95,0,*7A
1494227109.21,24539,15.31,72764.5,8.15,-27.99,-29.95,0,*7A
1494227110.44,24540,15.31,72762.5,8.15,-27.55,-29.51,0,*7C
1494227111.64,24541,15.31,72766.0,8.15,-27.19,-29.07,0,*76
1494227112.89,24542,15.31,72766.3,8.17,-28.31,-30.55,0,*7D
1494227114.15,24543,15.31,72766.5,8.17,-29.67,-31.95,0,*73
1494227115.4,24544,15.31,72766.0,8.17,-29.61,-31.57,0,*7C
1494227116.68,24545,15.31,72762.3,8.17,-28.59,-31.11,0,*75
1494227117.96,24546,15.31,72760.8,8.17,-30.01,-31.73,0,*76
1494227119.18,24547,15.31,72764.5,8.17,-27.93,-29.67,0,*76
1494227120.46,24548,15.31,72766.8,8.17,-28.25,-30.51,0,*76
1494227121.72,24549,15.31,72762.0,8.17,-27.77,-29.35,0,*75
1494227122.92,24550,15.31,72764.3,8.19,-28.31,-30.23,0,*71
1494227124.2,24551,15.31,72764.8,8.17,-28.79,-30.73,0,*77
1494227125.41,24552,15.31,72764.0,8.19,-30.67,-32.51,0,*7E
1494227126.65,24553,15.31,72764.3,8.19,-29.61,-31.39,0,*7C
1494227127.9,24554,15.31,72764.0,8.19,-28.63,-30.55,0,*73
1494227129.15,24555,15.31,72762.3,8.19,-29.73,-31.61,0,*74
1494227130.41,24556,15.31,72766.5,8.19,-29.73,-31.61,0,*77
1494227131.66,24557,15.31,72766.5,8.19,-30.05,-31.95,0,*74
1494227132.91,24558,15.31,72766.0,8.19,-28.79,-30.55,0,*74
1494227134.16,24559,15.31,72766.3,8.17,-28.43,-30.23,0,*73
1494227135.44,24560,15.31,72764.3,8.17,-28.59,-30.51,0,*77
1494227136.64,24561,15.31,72764.0,8.19,-28.31,-30.23,0,*73
1494227137.9,24562,15.31,72766.8,8.19,-28.25,-30.01,0,*75
1494227139.18,24563,15.31,72766.3,8.21,-28.91,-30.89,0,*70
1494227140.43,24564,15.31,72766.3,8.21,-29.13,-31.01,0,*7D
1494227141.65,24565,15.31,72764.3,8.21,-28.53,-30.11,0,*79
1494227142.9,24566,15.31,72766.5,8.21,-28.25,-29.95,0,*7F
1494227144.16,24567,15.31,72764.5,8.25,-29.51,-31.17,0,*7B
1494227145.39,24568,15.31,72764.3,8.25,-28.85,-30.11,0,*7B
1494227146.67,24569,15.31,72764.8,8.25,-26.97,-27.99,0,*71
1494227147.93,24570,15.31,72760.0,8.25,-27.35,-29.17,0,*78
1494227149.18,24571,15.31,72760.5,8.27,-27.99,-30.17,0,*75
1494227150.4,24572,15.31,72764.0,8.27,-27.93,-29.73,0,*76
1494227151.67,24573,15.31,72764.8,8.29,-27.35,-29.01,0,*70
1494227152.87,24574,15.31,72766.0,8.31,-27.29,-28.97,0,*7D
1494227154.11,24575,15.31,72764.0,8.31,-27.23,-28.75,0,*7A
1494227155.36,24576,15.31,72764.3,8.33,-27.03,-28.91,0,*73
1494227156.56,24577,15.31,72766.0,8.35,-26.23,-28.15,0,*7B
1494227157.78,24578,15.31,72764.5,8.39,-26.61,-28.63,0,*7F
1494227159.01,24579,15.31,72766.0,8.41,-28.15,-30.33,0,*70
1494227160.25,24580,15.31,72762.5,8.39,-30.17,-32.29,0,*7B
1494227161.45,24581,15.31,72766.0,8.39,-27.93,-29.67,0,*70
1494227162.68,24582,15.31,72764.0,8.41,-28.37,-30.33,0,*74
1494227163.94,24583,15.31,72764.0,8.41,-29.01,-31.05,0,*75
1494227165.14,24584,15.31,72762.3,8.45,-28.37,-30.11,0,*76
1494227166.39,24585,15.31,72760.8,8.45,-27.83,-29.39,0,*75
1494227167.6,24586,15.31,72762.5,8.45,-28.37,-29.79,0,*72
1494227168.82,24587,15.31,72760.0,8.49,-27.39,-28.85,0,*7C
1494227170.06,24588,15.31,72764.0,8.49,-27.03,-28.63,0,*72
1494227171.29,24589,15.31,72764.3,8.49,-28.31,-29.89,0,*78
1494227172.53,24590,15.31,72762.3,8.53,-28.79,-30.67,0,*7F
1494227173.79,24591,15.31,72760.8,8.53,-29.13,-30.73,0,*76
1494227175.05,24592,15.31,72762.8,8.51,-29.13,-30.67,0,*72
1494227176.27,24593,15.31,72762.3,8.51,-28.15,-29.67,0,*7C
1494227177.55,24594,15.31,72760.5,8.51,-28.79,-30.39,0,*72
1494227178.75,24595,15.31,72762.8,8.53,-28.15,-29.67,0,*78
1494227179.99,24596,15.31,72760.8,8.55,-29.07,-30.83,0,*7D
1494227181.22,24597,15.31,72764.5,8.53,-28.79,-30.23,0,*78
1494227182.45,24598,15.31,72764.3,8.55,-29.45,-31.17,0,*79
1494227183.71,24599,15.31,72764.5,8.55,-30.27,-32.19,0,*79
1494227184.94,24600,15.31,72762.3,8.53,-29.83,-31.39,0,*7B
1494227186.17,24601,15.31,72766.3,8.53,-28.25,-29.79,0,*7A
1494227187.4,24602,15.31,72760.8,8.53,-31.01,-32.85,0,*7E
1494227188.6,24603,15.31,72760.3,8.53,-30.11,-32.13,0,*70
1494227189.83,24604,15.31,72760.8,8.53,-27.45,-29.61,0,*7F
1494227191.11,24605,15.31,72760.0,8.55,-26.17,-29.01,0,*78
1494227192.38,24606,15.31,72760.8,8.55,-26.33,-29.29,0,*77
1494227193.64,24607,15.31,72758.0,8.55,-29.45,-32.45,0,*78
1494227194.86,24608,15.31,72764.3,8.53,-30.39,-33.21,0,*71
1494227196.11,24609,15.31,72762.8,8.53,-30.39,-32.85,0,*7F
1494227197.37,24610,15.31,72766.5,8.53,-28.91,-31.39,0,*78
1494227198.58,24611,15.31,72760.0,8.53,-27.71,-29.83,0,*70
1494227199.84,24612,15.31,72766.3,8.53,-28.63,-31.23,0,*7C
1494227201.07,24613,15.31,72766.5,8.53,-28.59,-30.23,0,*75
1494227202.32,24614,15.31,72766.8,8.55,-26.87,-28.91,0,*79
1494227203.55,24615,15.31,72766.3,8.53,-26.29,-27.77,0,*7D
1494227204.78,24616,15.31,72764.3,8.53,-26.07,-28.25,0,*7A
1494227206.06,24617,15.31,72766.3,8.55,-26.71,-28.25,0,*7C
1494227207.3,24618,15.31,72766.8,8.55,-25.35,-27.83,0,*73
1494227208.55,24619,15.31,72764.3,8.55,-25.23,-28.09,0,*78
1494227209.78,24620,15.31,72764.5,8.57,-26.17,-29.57,0,*7E
1494227210.99,24621,15.31,72766.5,8.57,-29.57,-32.35,0,*7A
1494227212.27,24622,15.31,72770.3,8.55,-27.99,-30.61,0,*74
1494227213.54,24623,15.31,72766.0,8.55,-26.93,-29.13,0,*73
1494227214.79,24624,15.31,72760.8,8.59,-27.13,-29.35,0,*75
1494227216.03,24625,15.31,72768.0,8.57,-27.19,-29.29,0,*7D
1494227217.26,24626,15.31,72770.5,8.59,-26.61,-28.69,0,*7B
1494227218.49,24627,15.31,72770.0,8.65,-27.29,-29.35,0,*70
1494227219.74,24628,15.31,72764.0,8.65,-28.43,-30.05,0,*77
1494227220.98,24629,15.31,72766.8,8.65,-26.39,-26.81,0,*7E
1494227222.24,24630,15.31,72762.0,8.65,-25.55,-25.75,0,*77
1494227223.47,24631,15.31,72760.0,8.65,-27.29,-27.45,0,*7E
1494227224.73,24632,15.31,72764.5,8.65,-25.55,-24.41,0,*73
1494227225.98,24633,15.31,72762.8,8.65,-22.47,-21.57,0,*74
1494227227.21,24634,15.31,72762.8,8.69,-19.85,-21.17,0,*7D
1494227228.45,24635,15.31,72766.8,8.69,-19.51,-22.17,0,*76
1494227229.69,24636,15.31,72764.0,8.73,-22.73,-26.13,0,*76
1494227230.93,24637,15.31,72766.0,8.71,-24.35,-27.67,0,*73
1494227232.2,24638,15.31,72764.0,8.71,-23.69,-26.33,0,*72
1494227233.47,24639,15.31,72766.3,8.67,-23.65,-29.13,0,*75
1494227234.75,24640,15.31,72762.0,8.67,-26.71,-32.07,0,*74
1494227235.98,24641,15.31,72760.0,8.63,-27.71,-32.51,0,*73
1494227237.24,24642,15.31,72760.5,8.63,-28.75,-32.51,0,*7B
1494227238.49,24643,15.31,72756.0,8.59,-27.51,-30.55,0,*7C
1494227239.74,24644,15.31,72762.0,8.59,-26.65,-29.17,0,*73
1494227240.98,24645,15.31,72762.0,8.65,-28.75,-31.29,0,*76
1494227242.23,24646,15.31,72760.5,8.65,-27.39,-29.35,0,*76
1494227243.49,24647,15.31,72760.5,8.67,-27.03,-28.91,0,*73
1494227244.76,24648,15.31,72758.8,8.67,-27.39,-29.39,0,*76
1494227246.01,24649,15.31,72760.5,8.69,-27.19,-28.91,0,*78
1494227247.26,24650,15.31,72756.5,8.71,-28.53,-30.55,0,*79
1494227248.46,24651,15.31,72762.3,8.73,-27.71,-29.45,0,*7C
1494227249.7,24652,15.31,72762.3,8.73,-27.45,-29.17,0,*7F
1494227250.95,24653,15.31,72760.3,8.75,-27.51,-29.29,0,*70
1494227252.19,24654,15.31,72760.3,8.77,-27.35,-29.23,0,*7D
1494227253.44,24655,15.31,72760.0,8.77,-27.23,-29.07,0,*7D
1494227254.69,24656,15.31,72762.5,8.79,-27.61,-29.17,0,*77
1494227255.95,24657,15.31,72760.0,8.81,-27.51,-29.51,0,*70
1494227257.23,24658,15.31,72762.0,8.81,-28.21,-30.39,0,*71
1494227258.45,24659,15.31,72756.3,8.81,-29.07,-31.01,0,*7F
1494227259.71,24660,15.31,72762.0,8.81,-28.53,-30.39,0,*7F
1494227261.0,24661,15.31,72762.5,8.81,-28.91,-30.77,0,*7A
1494227262.25,24662,15.31,72762.8,8.81,-27.83,-29.67,0,*7C
1494227263.5,24663,15.31,72760.0,8.87,-28.25,-30.01,0,*70
1494227264.76,24664,15.31,72760.0,8.89,-28.91,-30.67,0,*76
1494227265.97,24665,15.31,72766.5,8.87,-29.07,-30.83,0,*7D
1494227267.2,24666,15.31,72764.3,8.87,-28.59,-30.33,0,*7F
1494227268.39,24667,15.31,72764.8,8.87,-27.93,-29.61,0,*78
1494227269.62,24668,15.31,72768.0,8.89,-27.71,-29.45,0,*73
1494227270.84,24669,15.31,72764.5,8.91,-27.83,-29.95,0,*7B
1494227272.12,24670,15.31,72766.5,8.93,-28.05,-29.89,0,*7D
1494227273.36,24671,15.31,72770.5,8.93,-28.15,-30.05,0,*71
1494227274.58,24672,15.31,72770.0,8.95,-27.13,-29.01,0,*71
1494227275.81,24673,15.31,72764.3,8.93,-28.37,-30.27,0,*73
1494227277.05,24674,15.31,72766.3,8.95,-27.39,-29.01,0,*7F
1494227278.33,24675,15.31,72764.5,8.97,-28.47,-30.61,0,*74
1494227279.58,24676,15.31,72764.3,8.97,-28.97,-31.23,0,*7D
1494227280.83,24677,15.31,72764.3,8.97,-29.79,-31.95,0,*70
1494227282.11,24678,15.31,72764.8,8.97,-28.25,-30.51,0,*7E
1494227283.35,24679,15.31,72768.0,8.97,-28.75,-31.05,0,*7A
1494227284.61,24680,15.31,72770.3,8.97,-28.91,-31.17,0,*75
1494227285.89,24681,15.31,72766.8,8.97,-28.09,-30.61,0,*75
1494227287.14,24682,15.31,72768.5,8.97,-27.71,-30.01,0,*70
1494227288.39,24683,15.31,72768.5,8.97,-27.45,-29.83,0,*74
1494227289.59,24684,15.31,72764.3,8.99,-28.37,-30.45,0,*75
1494227290.82,24685,15.31,72764.5,8.97,-29.07,-31.01,0,*79
1494227292.07,24686,15.31,72764.0,8.97,-28.59,-30.33,0,*70
1494227293.3,24687,15.31,72768.8,8.99,-28.37,-30.01,0,*76
1494227294.52,24688,15.31,72764.5,9.01,-28.31,-29.95,0,*7A
1494227295.78,24689,15.31,72768.8,9.01,-29.01,-30.67,0,*7C
1494227297.04,24690,15.31,72766.0,9.01,-29.57,-31.11,0,*77
1494227298.29,24691,15.31,72764.5,9.01,-28.69,-30.39,0,*71
1494227299.54,24692,15.31,72770.5,9.01,-28.59,-30.27,0,*7E
1494227300.79,24693,15.31,72768.3,9.03,-28.91,-30.39,0,*76
1494227301.99,24694,15.31,72768.0,9.03,-28.85,-30.45,0,*7F
1494227303.22,24695,15.31,72764.5,9.03,-28.53,-30.05,0,*71
1494227304.44,24696,15.38,72774.3,9.03,-29.89,-31.67,0,*71
1494227305.67,24697,15.31,72772.3,9.03,-31.29,-32.75,0,*73